TITAN 3C TRANSTAGE DEB, 59981

Orbit data source: Space-Track

TITAN 3C TRANSTAGE DEB, 59981 is space debris in GEO originally from a launch on Thu, 26 Sep 1968 UTC launched from the Air Force Eastern Test Range (AFETR). Debris objects in space refer to the collection of defunct objects orbiting the Earth. Examples of debris include non-operational satellites, rocket bodies, and fragments generated from explosions, collisions, or faulty payload assembly.

Not visible in the next 10 days
Identifier
59981, 1968-081AP
Orbit
GEO
Country
Flag of USUS
Related business
Manufacturer
Unknown
Mission
Spacecraft
Bus & Motor
Unknown
Mass
Unknown
Launch date (UTC)
1968-09-26 (58 years ago)
Launch vehicle
Unknown
Launch site
Air Force Eastern Test Range (AFETR)
Object type
Payload
Rocket body
Debris
Shape & HBR
Unknown shape, 1.1 m
Radar Cross Section
RCS unknown

Expand to show TLE details & history
Last TLE update: 1 day ago

TLE from 1 day ago
0 TITAN 3C TRANSTAGE DEB
1 59981U 68081AP  26111.00160025 -.00000044  00000-0  00000-0 0  9999
2 59981   2.2656  48.1877 0231737 257.4123 255.4336  1.00896558 60283
Epoch: 2026-04-21T00:02Z
TLE epoch observation values (Epoch: 2026-04-21T00:02:18.261Z)
Latitude
1.10684°
Longitude
-11.14485°
Altitude
35,876.332 km
Speed
3.062 km/s
True Right ascension
13h 14m 03s
True Declination
1° 06' 21"
Sunlit
Object was in daylight at epoch
Visualization orbit readout
Latitude
Unknown
Longitude
Unknown
Altitude
Unknown
Speed
Unknown
Apparent Right ascension
Unknown
Apparent Declination
Unknown
Sunlit
N/A
Visualization observer readout
Local Sidereal Time
18:42:28
Azimuth
Unknown
Elevation
Unknown
Doppler factor
Unknown
Orbital elements
Apogee altitude
36,586.526 km
Perigee altitude
34,640.326 km
Semi-major axis
41,991.563 km
Eccentricity
0.02317
Inclination
2.2656°
RAAN
48.1877°
Arg. of periapsis
257.4123°
True anomaly
252.88288°
Mean anomaly
255.4336°
Eccentric anomaly
254.15629°
Mean motion
0.25223 °/min
Orbital period
1,427.26 mins
BSTAR
0
Loading maneuver chart data...
Computing Atmospheric mass density...

Documentation

Showing up to 5 results
|